• In Sweden
  • List of Countries
  • For 7 days
  • Water Temperature
  • Satellite Maps
  • Weather Map
  • Weather Widgets
  • user-avatar
    Login

    Hourly Weather Ozernoe

    Today, 28 May, Monday

    Time Temperature Precipitation Wind Pressure Humidity
    00:00 +2°C° 0 mm 2 mps 742 mmHg 84%
    01:00 +1°C° 0.4 mm 3 mps 742 mmHg 84%
    02:00 +2°C° 0.4 mm 3 mps 741 mmHg 83%
    03:00 +2°C° 0.4 mm 3 mps 741 mmHg 83%
    04:00 +2°C° 0.2 mm 3 mps 740 mmHg 85%
    05:00 +2°C° 0.2 mm 3 mps 740 mmHg 87%
    06:00 +3°C° 0.2 mm 3 mps 739 mmHg 88%
    07:00 +3°C° 0.2 mm 3 mps 739 mmHg 90%
    08:00 +3°C° 0.2 mm 3 mps 738 mmHg 91%
    09:00 +4°C° 0.2 mm 3 mps 738 mmHg 92%
    10:00 +4°C° 0.2 mm 3 mps 738 mmHg 91%
    11:00 +6°C° 0.2 mm 2 mps 738 mmHg 91%
    12:00 +6°C° 0.2 mm 2 mps 738 mmHg 90%
    13:00 +7°C° 0 mm 2 mps 739 mmHg 87%
    14:00 +7°C° 0 mm 2 mps 740 mmHg 85%
    15:00 +8°C° 0 mm 2 mps 741 mmHg 83%
    16:00 +8°C° 0 mm 2 mps 741 mmHg 83%
    17:00 +8°C° 0 mm 2 mps 742 mmHg 83%
    18:00 +8°C° 0 mm 2 mps 743 mmHg 83%
    19:00 +7°C° 0 mm 1 mps 743 mmHg 87%
    20:00 +6°C° 0 mm 1 mps 743 mmHg 91%
    21:00 +5°C° 0 mm 1 mps 744 mmHg 95%
    22:00 +5°C° 0 mm 1 mps 744 mmHg 96%
    23:00 +5°C° 0 mm 1 mps 745 mmHg 97%

    Tomorrow, 29 May, Tuesday

    Time Temperature Precipitation Wind Pressure Humidity
    00:00 +4°C° 0 mm 1 mps 745 mmHg 98%
    01:00 +4°C° 0 mm 1 mps 745 mmHg 98%
    02:00 +4°C° 0 mm 1 mps 745 mmHg 98%
    03:00 +4°C° 0 mm 1 mps 745 mmHg 98%
    04:00 +5°C° 0 mm 1 mps 745 mmHg 95%
    05:00 +5°C° 0 mm 2 mps 745 mmHg 92%
    06:00 +5°C° 0 mm 2 mps 745 mmHg 90%
    07:00 +7°C° 0 mm 3 mps 745 mmHg 83%
    08:00 +8°C° 0 mm 3 mps 745 mmHg 76%
    09:00 +8°C° 0 mm 4 mps 745 mmHg 69%
    10:00 +10°C° 0 mm 4 mps 744 mmHg 64%
    11:00 +12°C° 0 mm 4 mps 744 mmHg 59%
    12:00 +13°C° 0 mm 5 mps 744 mmHg 53%
    13:00 +13°C° 0.1 mm 5 mps 744 mmHg 56%
    14:00 +14°C° 0.1 mm 5 mps 744 mmHg 58%
    15:00 +15°C° 0.1 mm 5 mps 744 mmHg 61%
    16:00 +14°C° 0 mm 5 mps 743 mmHg 63%
    17:00 +14°C° 0 mm 5 mps 743 mmHg 66%
    18:00 +14°C° 0 mm 5 mps 743 mmHg 68%
    19:00 +13°C° 0 mm 4 mps 743 mmHg 72%
    20:00 +12°C° 0 mm 4 mps 743 mmHg 76%
    21:00 +11°C° 0 mm 4 mps 743 mmHg 80%
    22:00 +11°C° 0 mm 4 mps 743 mmHg 80%
    23:00 +11°C° 0 mm 4 mps 743 mmHg 79%

    Day after tomorrow, 30 May, Wednesday

    Time Temperature Precipitation Wind Pressure Humidity
    00:00 +11°C° 0 mm 4 mps 743 mmHg 79%
    01:00 +10°C° 0 mm 3 mps 744 mmHg 84%
    02:00 +9°C° 0 mm 3 mps 744 mmHg 90%
    03:00 +7°C° 0 mm 2 mps 744 mmHg 95%
    04:00 +8°C° 0 mm 2 mps 745 mmHg 90%
    05:00 +10°C° 0 mm 1 mps 745 mmHg 86%
    06:00 +10°C° 0 mm 1 mps 745 mmHg 81%
    07:00 +12°C° 0 mm 1 mps 745 mmHg 74%
    08:00 +15°C° 0 mm 2 mps 745 mmHg 66%
    09:00 +17°C° 0 mm 2 mps 744 mmHg 58%
    10:00 +17°C° 0.1 mm 2 mps 744 mmHg 57%
    11:00 +18°C° 0.1 mm 2 mps 743 mmHg 56%
    12:00 +19°C° 0.1 mm 3 mps 743 mmHg 55%
    13:00 +20°C° 0 mm 3 mps 742 mmHg 48%
    14:00 +22°C° 0 mm 3 mps 742 mmHg 41%
    15:00 +24°C° 0 mm 3 mps 741 mmHg 34%
    16:00 +24°C° 0 mm 3 mps 740 mmHg 37%
    17:00 +24°C° 0 mm 3 mps 740 mmHg 39%
    18:00 +23°C° 0 mm 2 mps 739 mmHg 42%
    19:00 +20°C° 0.1 mm 2 mps 739 mmHg 52%
    20:00 +18°C° 0.1 mm 2 mps 739 mmHg 61%
    21:00 +16°C° 0.1 mm 2 mps 738 mmHg 71%
    22:00 +16°C° 0 mm 3 mps 738 mmHg 71%
    23:00 +14°C° 0 mm 3 mps 737 mmHg 72%

    31 May, Thursday

    Time Temperature Precipitation Wind Pressure Humidity
    00:00 +14°C° 0 mm 3 mps 737 mmHg 72%
    01:00 +14°C° 0 mm 3 mps 737 mmHg 71%
    02:00 +15°C° 0 mm 2 mps 737 mmHg 70%
    03:00 +15°C° 0 mm 2 mps 737 mmHg 68%
    04:00 +14°C° 0.1 mm 3 mps 737 mmHg 67%
    05:00 +14°C° 0.1 mm 4 mps 738 mmHg 66%
    06:00 +14°C° 0.1 mm 4 mps 738 mmHg 65%
    07:00 +15°C° 0 mm 5 mps 738 mmHg 58%
    08:00 +16°C° 0 mm 5 mps 738 mmHg 51%
    09:00 +17°C° 0 mm 6 mps 738 mmHg 45%
    10:00 +17°C° 0.1 mm 6 mps 738 mmHg 45%
    11:00 +17°C° 0.1 mm 6 mps 738 mmHg 45%
    12:00 +17°C° 0.1 mm 6 mps 738 mmHg 46%
    13:00 +16°C° 0.5 mm 5 mps 739 mmHg 54%
    14:00 +15°C° 0.5 mm 5 mps 740 mmHg 62%
    15:00 +14°C° 0.5 mm 4 mps 740 mmHg 71%
    16:00 +14°C° 0.6 mm 5 mps 741 mmHg 75%
    17:00 +13°C° 0.6 mm 5 mps 743 mmHg 80%
    18:00 +12°C° 0.6 mm 5 mps 744 mmHg 85%
    19:00 +10°C° 0.1 mm 5 mps 745 mmHg 87%
    20:00 +8°C° 0.1 mm 4 mps 746 mmHg 89%
    21:00 +8°C° 0.1 mm 3 mps 747 mmHg 91%
    22:00 +8°C° 0 mm 3 mps 747 mmHg 91%
    23:00 +7°C° 0 mm 3 mps 747 mmHg 91%

    1 June, Friday

    Time Temperature Precipitation Wind Pressure Humidity
    00:00 +7°C° 0 mm 3 mps 748 mmHg 91%
    01:00 +7°C° 0 mm 3 mps 747 mmHg 89%
    02:00 +5°C° 0 mm 3 mps 747 mmHg 88%
    03:00 +5°C° 0 mm 4 mps 746 mmHg 87%
    04:00 +7°C° 0 mm 4 mps 746 mmHg 79%
    05:00 +8°C° 0 mm 5 mps 745 mmHg 71%
    06:00 +10°C° 0 mm 6 mps 745 mmHg 63%
    07:00 +9°C° 1.1 mm 5 mps 744 mmHg 72%
    08:00 +9°C° 1.1 mm 5 mps 744 mmHg 81%
    09:00 +10°C° 1.1 mm 4 mps 744 mmHg 90%
    10:00 +9°C° 0.3 mm 5 mps 744 mmHg 88%
    11:00 +10°C° 0.3 mm 5 mps 743 mmHg 87%
    12:00 +12°C° 0.3 mm 5 mps 743 mmHg 85%
    13:00 +13°C° 0.4 mm 6 mps 742 mmHg 78%
    14:00 +15°C° 0.4 mm 6 mps 741 mmHg 71%
    15:00 +17°C° 0.4 mm 6 mps 740 mmHg 64%
    16:00 +19°C° 0.2 mm 6 mps 740 mmHg 64%
    17:00 +19°C° 0.2 mm 6 mps 739 mmHg 63%
    18:00 +20°C° 0.2 mm 7 mps 739 mmHg 62%
    19:00 +17°C° 1.5 mm 6 mps 739 mmHg 72%
    20:00 +15°C° 1.5 mm 5 mps 739 mmHg 82%
    21:00 +13°C° 1.5 mm 5 mps 739 mmHg 92%
    22:00 +12°C° 0.2 mm 5 mps 740 mmHg 92%
    23:00 +10°C° 0.2 mm 4 mps 741 mmHg 92%

    2 June, Saturday

    Time Temperature Precipitation Wind Pressure Humidity
    00:00 +8°C° 0.2 mm 4 mps 741 mmHg 92%
    01:00 +8°C° 0 mm 4 mps 742 mmHg 92%
    02:00 +7°C° 0 mm 4 mps 742 mmHg 92%
    03:00 +6°C° 0 mm 4 mps 743 mmHg 92%
    04:00 +7°C° 0 mm 5 mps 743 mmHg 88%
    05:00 +7°C° 0 mm 5 mps 744 mmHg 85%
    06:00 +7°C° 0 mm 5 mps 744 mmHg 81%
    07:00 +8°C° 0 mm 6 mps 744 mmHg 76%
    08:00 +8°C° 0 mm 6 mps 745 mmHg 70%
    09:00 +9°C° 0 mm 6 mps 745 mmHg 65%
    10:00 +9°C° 0 mm 6 mps 745 mmHg 62%
    11:00 +10°C° 0 mm 6 mps 746 mmHg 60%
    12:00 +10°C° 0 mm 6 mps 746 mmHg 57%
    13:00 +10°C° 0.1 mm 5 mps 746 mmHg 55%
    14:00 +12°C° 0.1 mm 5 mps 747 mmHg 53%
    15:00 +12°C° 0.1 mm 5 mps 747 mmHg 51%
    16:00 +12°C° 0 mm 4 mps 747 mmHg 51%
    17:00 +12°C° 0 mm 4 mps 747 mmHg 51%
    18:00 +12°C° 0 mm 3 mps 747 mmHg 51%
    19:00 +10°C° 0 mm 2 mps 748 mmHg 59%
    20:00 +9°C° 0 mm 2 mps 748 mmHg 68%
    21:00 +8°C° 0 mm 1 mps 748 mmHg 76%
    22:00 +7°C° 0 mm 1 mps 747 mmHg 79%
    23:00 +5°C° 0 mm 0 mps 747 mmHg 82%
    Show more